Time,TemperatureF,DewpointF,PressureIn,WindDirection,WindDirectionDegrees,WindSpeedMPH,WindSpeedGustMPH,Humidity,HourlyPrecipIn,Conditions,Clouds,dailyrainin,SolarRadiationWatts/m^2,SoftwareType,DateUTC
2013-02-25 00:03:00,36.1,34.0,30.06,NE,43,0.0,0.0,90,0.00,,,0.00,0,weatherlink.com 1.10,2013-02-25 05:03:00,
2013-02-25 00:18:00,35.7,33.0,30.07,NE,43,0.0,0.0,90,0.00,,,0.00,0,weatherlink.com 1.10,2013-02-25 05:18:00,
2013-02-25 00:33:00,35.7,33.0,30.07,NE,43,0.0,0.0,90,0.00,,,0.00,0,weatherlink.com 1.10,2013-02-25 05:33:00,
2013-02-25 00:49:00,35.0,32.0,30.07,NE,43,0.0,0.0,90,0.00,,,0.00,0,weatherlink.com 1.10,2013-02-25 05:49:00,
2013-02-25 01:04:00,34.3,32.0,30.07,NE,43,0.0,0.0,90,0.00,,,0.00,0,weatherlink.com 1.10,2013-02-25 06:04:00,
2013-02-25 01:19:00,33.9,31.0,30.07,NE,43,0.0,0.0,90,0.00,,,0.00,0,weatherlink.com 1.10,2013-02-25 06:19:00,
2013-02-25 01:34:00,33.3,31.0,30.08,NE,43,0.0,0.0,91,0.00,,,0.00,0,weatherlink.com 1.10,2013-02-25 06:34:00,
2013-02-25 01:49:00,33.5,31.0,30.08,NE,43,0.0,2.0,90,0.00,,,0.00,0,weatherlink.com 1.10,2013-02-25 06:49:00,
2013-02-25 02:04:00,35.2,30.0,30.08,NNE,26,0.0,4.0,81,0.00,,,0.00,0,weatherlink.com 1.10,2013-02-25 07:04:00,
2013-02-25 02:19:00,38.4,30.0,30.09,NNE,25,1.0,10.0,72,0.00,,,0.00,0,weatherlink.com 1.10,2013-02-25 07:19:00,
2013-02-25 02:34:00,40.4,31.0,30.09,NE,50,2.0,10.0,68,0.00,,,0.00,0,weatherlink.com 1.10,2013-02-25 07:34:00,
2013-02-25 02:49:00,39.9,29.0,30.10,NE,46,5.0,12.0,66,0.00,,,0.00,0,weatherlink.com 1.10,2013-02-25 07:49:00,
2013-02-25 03:04:00,39.5,28.0,30.10,NE,40,4.0,14.0,64,0.00,,,0.00,0,weatherlink.com 1.10,2013-02-25 08:04:00,
2013-02-25 03:19:00,38.7,28.0,30.09,NE,50,4.0,12.0,66,0.00,,,0.00,0,weatherlink.com 1.10,2013-02-25 08:19:00,
2013-02-25 03:34:00,38.2,28.0,30.09,NE,50,1.0,11.0,66,0.00,,,0.00,0,weatherlink.com 1.10,2013-02-25 08:34:00,
2013-02-25 03:49:00,37.6,28.0,30.11,NNW,329,2.0,12.0,68,0.00,,,0.00,0,weatherlink.com 1.10,2013-02-25 08:49:00,
2013-02-25 04:04:00,37.3,27.0,30.12,North,355,9.0,15.0,66,0.00,,,0.00,0,weatherlink.com 1.10,2013-02-25 09:04:00,
2013-02-25 04:19:00,36.9,26.0,30.12,North,5,0.0,10.0,66,0.00,,,0.00,0,weatherlink.com 1.10,2013-02-25 09:19:00,
2013-02-25 04:34:00,36.5,26.0,30.13,North,360,3.0,10.0,67,0.00,,,0.00,0,weatherlink.com 1.10,2013-02-25 09:34:00,
2013-02-25 04:49:00,36.2,26.0,30.13,NE,51,6.0,9.0,66,0.00,,,0.00,0,weatherlink.com 1.10,2013-02-25 09:49:00,
2013-02-25 05:04:00,36.0,26.0,30.14,East,90,2.0,6.0,67,0.00,,,0.00,0,weatherlink.com 1.10,2013-02-25 10:04:00,
2013-02-25 05:19:00,35.9,25.0,30.14,NE,51,3.0,10.0,66,0.00,,,0.00,0,weatherlink.com 1.10,2013-02-25 10:19:00,
2013-02-25 05:34:00,35.5,27.0,30.15,NE,39,0.0,6.0,70,0.00,,,0.00,0,weatherlink.com 1.10,2013-02-25 10:34:00,
2013-02-25 05:49:00,35.2,25.0,30.16,NNE,16,5.0,7.0,67,0.00,,,0.00,0,weatherlink.com 1.10,2013-02-25 10:49:00,
2013-02-25 06:04:00,35.1,25.0,30.16,NE,36,2.0,11.0,67,0.00,,,0.00,0,weatherlink.com 1.10,2013-02-25 11:04:00,
2013-02-25 06:19:00,34.8,25.0,30.16,NE,53,0.0,7.0,67,0.00,,,0.00,0,weatherlink.com 1.10,2013-02-25 11:19:00,
2013-02-25 06:34:00,34.6,24.0,30.17,ENE,70,2.0,7.0,66,0.00,,,0.00,0,weatherlink.com 1.10,2013-02-25 11:34:00,
2013-02-25 06:49:00,34.4,24.0,30.17,ENE,67,4.0,6.0,66,0.00,,,0.00,0,weatherlink.com 1.10,2013-02-25 11:49:00,
2013-02-25 07:04:00,34.3,23.0,30.18,ENE,65,1.0,11.0,64,0.00,,,0.00,9,weatherlink.com 1.10,2013-02-25 12:04:00,
2013-02-25 07:19:00,34.3,23.0,30.18,NE,56,4.0,8.0,63,0.00,,,0.00,23,weatherlink.com 1.10,2013-02-25 12:19:00,
2013-02-25 07:35:00,34.3,23.0,30.18,NNE,23,2.0,8.0,63,0.00,,,0.00,39,weatherlink.com 1.10,2013-02-25 12:35:00,
2013-02-25 07:50:00,34.5,22.0,30.19,NNE,23,1.0,8.0,60,0.00,,,0.00,62,weatherlink.com 1.10,2013-02-25 12:50:00,
2013-02-25 08:05:00,34.7,22.0,30.21,ENE,63,8.0,12.0,59,0.00,,,0.00,77,weatherlink.com 1.10,2013-02-25 13:05:00,
2013-02-25 08:20:00,34.9,21.0,30.22,ESE,113,7.0,7.0,58,0.00,,,0.00,102,weatherlink.com 1.10,2013-02-25 13:20:00,
2013-02-25 08:35:00,35.0,21.0,30.22,North,9,4.0,11.0,57,0.00,,,0.00,128,weatherlink.com 1.10,2013-02-25 13:35:00,
2013-02-25 08:50:00,35.4,21.0,30.22,ENE,59,0.0,10.0,57,0.00,,,0.00,160,weatherlink.com 1.10,2013-02-25 13:50:00,
2013-02-25 09:05:00,35.6,21.0,30.22,NE,34,3.0,9.0,56,0.00,,,0.00,193,weatherlink.com 1.10,2013-02-25 14:05:00,
2013-02-25 09:20:00,36.1,22.0,30.23,NNE,16,7.0,10.0,56,0.00,,,0.00,250,weatherlink.com 1.10,2013-02-25 14:20:00,
2013-02-25 09:35:00,36.6,21.0,30.24,NNE,17,4.0,12.0,53,0.00,,,0.00,294,weatherlink.com 1.10,2013-02-25 14:35:00,
2013-02-25 09:50:00,37.0,21.0,30.25,NE,55,10.0,11.0,53,0.00,,,0.00,271,weatherlink.com 1.10,2013-02-25 14:50:00,
2013-02-25 10:05:00,37.2,21.0,30.25,ENE,72,9.0,9.0,52,0.00,,,0.00,329,weatherlink.com 1.10,2013-02-25 15:05:00,
2013-02-25 10:20:00,37.5,21.0,30.25,ENE,61,5.0,9.0,52,0.00,,,0.00,348,weatherlink.com 1.10,2013-02-25 15:20:00,
2013-02-25 10:35:00,38.5,23.0,30.23,ENE,70,4.0,8.0,53,0.00,,,0.00,380,weatherlink.com 1.10,2013-02-25 15:35:00,
2013-02-25 10:50:00,38.8,21.0,30.23,NE,39,5.0,8.0,50,0.00,,,0.00,390,weatherlink.com 1.10,2013-02-25 15:50:00,
2013-02-25 11:05:00,39.0,21.0,30.23,ESE,121,1.0,8.0,49,0.00,,,0.00,362,weatherlink.com 1.10,2013-02-25 16:05:00,
2013-02-25 11:20:00,39.2,22.0,30.22,NE,49,3.0,7.0,51,0.00,,,0.00,376,weatherlink.com 1.10,2013-02-25 16:20:00,
2013-02-25 11:35:00,40.5,23.0,30.22,ENE,63,1.0,5.0,50,0.00,,,0.00,360,weatherlink.com 1.10,2013-02-25 16:35:00,
2013-02-25 11:50:00,40.0,23.0,30.22,NNE,28,5.0,10.0,50,0.00,,,0.00,334,weatherlink.com 1.10,2013-02-25 16:50:00,
2013-02-25 12:05:00,40.2,23.0,30.21,NE,47,2.0,8.0,50,0.00,,,0.00,355,weatherlink.com 1.10,2013-02-25 17:05:00,
2013-02-25 12:20:00,40.4,23.0,30.21,NE,45,2.0,8.0,50,0.00,,,0.00,360,weatherlink.com 1.10,2013-02-25 17:20:00,
2013-02-25 12:35:00,41.3,24.0,30.20,NE,53,0.0,6.0,51,0.00,,,0.00,330,weatherlink.com 1.10,2013-02-25 17:35:00,
2013-02-25 12:50:00,41.4,23.0,30.19,NNE,14,5.0,9.0,49,0.00,,,0.00,334,weatherlink.com 1.10,2013-02-25 17:50:00,
2013-02-25 13:05:00,41.3,23.0,30.19,ENE,68,7.0,7.0,48,0.00,,,0.00,285,weatherlink.com 1.10,2013-02-25 18:05:00,
2013-02-25 13:20:00,41.4,23.0,30.20,ESE,111,2.0,6.0,49,0.00,,,0.00,258,weatherlink.com 1.10,2013-02-25 18:20:00,
2013-02-25 13:35:00,41.1,23.0,30.20,East,81,2.0,6.0,49,0.00,,,0.00,236,weatherlink.com 1.10,2013-02-25 18:35:00,
2013-02-25 13:50:00,41.5,24.0,30.20,NE,47,0.0,5.0,51,0.00,,,0.00,223,weatherlink.com 1.10,2013-02-25 18:50:00,
2013-02-25 14:05:00,41.6,25.0,30.19,ENE,73,3.0,7.0,51,0.00,,,0.00,199,weatherlink.com 1.10,2013-02-25 19:05:00,
2013-02-25 14:20:00,41.3,23.0,30.17,NNE,28,4.0,7.0,49,0.00,,,0.00,178,weatherlink.com 1.10,2013-02-25 19:20:00,
2013-02-25 14:35:00,41.5,24.0,30.18,NE,44,1.0,8.0,50,0.00,,,0.00,155,weatherlink.com 1.10,2013-02-25 19:35:00,
2013-02-25 14:50:00,41.7,24.0,30.17,ENE,63,3.0,7.0,50,0.00,,,0.00,135,weatherlink.com 1.10,2013-02-25 19:50:00,
2013-02-25 15:05:00,41.6,24.0,30.18,NNE,20,0.0,7.0,50,0.00,,,0.00,132,weatherlink.com 1.10,2013-02-25 20:05:00,
2013-02-25 15:20:00,41.7,24.0,30.18,NNW,346,0.0,7.0,49,0.00,,,0.00,125,weatherlink.com 1.10,2013-02-25 20:20:00,
2013-02-25 15:35:00,41.6,24.0,30.15,East,98,1.0,8.0,50,0.00,,,0.00,113,weatherlink.com 1.10,2013-02-25 20:35:00,
2013-02-25 15:50:00,41.5,24.0,30.16,North,5,1.0,5.0,50,0.00,,,0.00,95,weatherlink.com 1.10,2013-02-25 20:50:00,
2013-02-25 16:05:00,41.4,24.0,30.16,North,5,3.0,7.0,51,0.00,,,0.00,72,weatherlink.com 1.10,2013-02-25 21:05:00,
2013-02-25 16:20:00,41.4,25.0,30.16,NNW,333,0.0,3.0,52,0.00,,,0.00,56,weatherlink.com 1.10,2013-02-25 21:20:00,
2013-02-25 16:36:00,41.3,24.0,30.17,NE,39,1.0,4.0,51,0.00,,,0.00,47,weatherlink.com 1.10,2013-02-25 21:36:00,
2013-02-25 16:51:00,41.1,25.0,30.16,NE,44,1.0,5.0,53,0.00,,,0.00,39,weatherlink.com 1.10,2013-02-25 21:51:00,
2013-02-25 17:06:00,40.9,24.0,30.16,ENE,61,1.0,6.0,52,0.00,,,0.00,32,weatherlink.com 1.10,2013-02-25 22:06:00,
2013-02-25 17:21:00,40.7,25.0,30.16,ENE,63,4.0,7.0,53,0.00,,,0.00,28,weatherlink.com 1.10,2013-02-25 22:21:00,
2013-02-25 17:36:00,40.6,24.0,30.16,ENE,65,3.0,7.0,53,0.00,,,0.00,19,weatherlink.com 1.10,2013-02-25 22:36:00,
2013-02-25 17:51:00,40.4,25.0,30.17,East,96,5.0,5.0,54,0.00,,,0.00,9,weatherlink.com 1.10,2013-02-25 22:51:00,
2013-02-25 18:06:00,40.1,24.0,30.17,ENE,60,0.0,4.0,54,0.00,,,0.00,0,weatherlink.com 1.10,2013-02-25 23:06:00,
2013-02-25 18:21:00,39.8,24.0,30.17,North,5,1.0,6.0,54,0.00,,,0.00,0,weatherlink.com 1.10,2013-02-25 23:21:00,
2013-02-25 18:36:00,39.7,24.0,30.17,ENE,71,1.0,6.0,54,0.00,,,0.00,0,weatherlink.com 1.10,2013-02-25 23:36:00,
2013-02-25 18:51:00,39.4,24.0,30.18,NE,52,0.0,4.0,55,0.00,,,0.00,0,weatherlink.com 1.10,2013-02-25 23:51:00,
2013-02-25 19:06:00,39.1,24.0,30.18,ENE,57,0.0,2.0,56,0.00,,,0.00,0,weatherlink.com 1.10,2013-02-26 00:06:00,
2013-02-25 19:21:00,38.3,26.0,30.18,ENE,57,0.0,2.0,61,0.00,,,0.00,0,weatherlink.com 1.10,2013-02-26 00:21:00,
2013-02-25 19:36:00,38.1,25.0,30.18,NE,44,0.0,6.0,60,0.00,,,0.00,0,weatherlink.com 1.10,2013-02-26 00:36:00,
2013-02-25 19:51:00,38.0,25.0,30.19,ENE,60,0.0,2.0,59,0.00,,,0.00,0,weatherlink.com 1.10,2013-02-26 00:51:00,
2013-02-25 20:06:00,37.6,25.0,30.19,ENE,67,0.0,2.0,60,0.00,,,0.00,0,weatherlink.com 1.10,2013-02-26 01:06:00,
2013-02-25 20:21:00,37.2,25.0,30.18,North,351,2.0,2.0,61,0.00,,,0.00,0,weatherlink.com 1.10,2013-02-26 01:21:00,
2013-02-25 20:36:00,36.9,25.0,30.18,NE,36,0.0,2.0,62,0.00,,,0.00,0,weatherlink.com 1.10,2013-02-26 01:36:00,
2013-02-25 20:51:00,36.7,25.0,30.19,ENE,76,0.0,2.0,63,0.00,,,0.00,0,weatherlink.com 1.10,2013-02-26 01:51:00,
2013-02-25 21:06:00,35.9,27.0,30.18,ENE,76,0.0,2.0,70,0.00,,,0.00,0,weatherlink.com 1.10,2013-02-26 02:06:00,
2013-02-25 21:21:00,35.3,26.0,30.18,ENE,76,0.0,2.0,68,0.00,,,0.00,0,weatherlink.com 1.10,2013-02-26 02:21:00,
2013-02-25 21:36:00,35.3,26.0,30.19,NNE,32,0.0,3.0,68,0.00,,,0.00,0,weatherlink.com 1.10,2013-02-26 02:36:00,
2013-02-25 21:51:00,35.2,26.0,30.17,ENE,76,0.0,2.0,68,0.00,,,0.00,0,weatherlink.com 1.10,2013-02-26 02:51:00,
2013-02-25 22:06:00,35.5,25.0,30.17,ENE,57,1.0,4.0,67,0.00,,,0.00,0,weatherlink.com 1.10,2013-02-26 03:06:00,
2013-02-25 22:21:00,36.4,26.0,30.17,NE,40,0.0,5.0,65,0.00,,,0.00,0,weatherlink.com 1.10,2013-02-26 03:21:00,
2013-02-25 22:36:00,36.8,26.0,30.16,ENE,67,0.0,7.0,65,0.00,,,0.00,0,weatherlink.com 1.10,2013-02-26 03:36:00,
2013-02-25 22:51:00,36.9,26.0,30.16,ENE,66,2.0,2.0,65,0.00,,,0.00,0,weatherlink.com 1.10,2013-02-26 03:51:00,
2013-02-25 23:06:00,37.4,26.0,30.15,North,11,0.0,5.0,64,0.00,,,0.00,0,weatherlink.com 1.10,2013-02-26 04:06:00,
2013-02-25 23:21:00,37.2,27.0,30.15,NE,34,0.0,2.0,66,0.00,,,0.00,0,weatherlink.com 1.10,2013-02-26 04:21:00,
2013-02-25 23:36:00,37.1,27.0,30.16,NNE,32,1.0,2.0,66,0.00,,,0.00,0,weatherlink.com 1.10,2013-02-26 04:36:00,
2013-02-25 23:51:00,37.7,27.0,30.16,East,88,3.0,8.0,66,0.00,,,0.00,0,weatherlink.com 1.10,2013-02-26 04:51:00,